DAL4522 SEQM-SEGU

Flight info

Callsign DAL4522
Flight time N/A
Altitude 22000
Route TEMOX3B TEMOX TEMOX2
Aircraft B738/M-SDE2E3FGHIRWXY/LB1

Departure

Time 2026-04-28 15:00
Airport Mariscal Sucre International Airport (SEQM)

Arrival

Time N/A
Airport José Joaquín de Olmedo International Airport (SEGU)
Time Latitude Longitude Altitude Speed Heading
2026-04-28 14:49 -0.12431 -78.35927 7840 ft 0 kts 267°
2026-04-28 14:52 -0.12430 -78.35920 7833 ft 4 kts 268°
2026-04-28 14:52 -0.12430 -78.35893 7833 ft 4 kts 275°
2026-04-28 14:53 -0.12435 -78.35866 7831 ft 4 kts 289°
2026-04-28 14:53 -0.12447 -78.35845 7833 ft 4 kts 327°
2026-04-28 14:53 -0.12461 -78.35840 7837 ft 1 kts
2026-04-28 14:53 -0.12463 -78.35840 7838 ft 0 kts
2026-04-28 14:55 -0.12462 -78.35840 7838 ft 1 kts
2026-04-28 14:55 -0.12430 -78.35840 7833 ft 8 kts
2026-04-28 14:55 -0.12368 -78.35817 7838 ft 11 kts 64°
2026-04-28 14:56 -0.12361 -78.35728 7833 ft 16 kts 87°
2026-04-28 14:56 -0.12320 -78.35622 7840 ft 19 kts 18°
2026-04-28 14:56 -0.12165 -78.35623 7834 ft 26 kts 358°
2026-04-28 14:56 -0.11972 -78.35631 7829 ft 27 kts 357°
2026-04-28 14:57 -0.11790 -78.35639 7822 ft 25 kts 359°
2026-04-28 14:57 -0.11675 -78.35643 7822 ft 24 kts 358°
2026-04-28 14:57 -0.11458 -78.35652 7815 ft 23 kts 357°
2026-04-28 14:57 -0.11294 -78.35660 7810 ft 25 kts 358°
2026-04-28 14:58 -0.11116 -78.35667 7803 ft 26 kts 357°
2026-04-28 14:58 -0.10931 -78.35676 7781 ft 27 kts 357°
2026-04-28 14:58 -0.10733 -78.35684 7786 ft 29 kts 358°
2026-04-28 14:58 -0.10579 -78.35635 7777 ft 24 kts 69°
2026-04-28 14:59 -0.10628 -78.35518 7781 ft 20 kts 174°
2026-04-28 14:59 -0.10965 -78.35503 7798 ft 81 kts 177°
2026-04-28 14:59 -0.11720 -78.35471 7825 ft 138 kts 178°
2026-04-28 14:59 -0.12872 -78.35430 7896 ft 185 kts 177°
2026-04-28 15:00 -0.14227 -78.35364 8325 ft 205 kts 176°
2026-04-28 15:00 -0.15663 -78.35276 9111 ft 208 kts 175°
2026-04-28 15:00 -0.17111 -78.35195 9754 ft 208 kts 178°
2026-04-28 15:00 -0.18561 -78.35179 10288 ft 211 kts 180°
2026-04-28 15:01 -0.20051 -78.35187 10786 ft 216 kts 179°
2026-04-28 15:01 -0.21552 -78.35171 11445 ft 214 kts 177°
2026-04-28 15:01 -0.23005 -78.35184 12232 ft 203 kts 179°
2026-04-28 15:01 -0.24439 -78.35222 12678 ft 211 kts 177°
2026-04-28 15:02 -0.25939 -78.35220 13065 ft 218 kts 178°
2026-04-28 15:02 -0.27450 -78.35262 13660 ft 219 kts 178°
2026-04-28 15:02 -0.28989 -78.35301 14105 ft 227 kts 178°
2026-04-28 15:02 -0.30623 -78.35364 14311 ft 242 kts 186°
2026-04-28 15:03 -0.32203 -78.35944 14657 ft 253 kts 214°
2026-04-28 15:03 -0.33536 -78.37188 14802 ft 272 kts 223°
2026-04-28 15:03 -0.34899 -78.38589 14918 ft 291 kts 224°
2026-04-28 15:03 -0.36231 -78.40175 15175 ft 307 kts 239°
2026-04-28 15:04 -0.37195 -78.42174 15337 ft 332 kts 245°
2026-04-28 15:04 -0.38108 -78.44371 15488 ft 353 kts 247°
2026-04-28 15:04 -0.39056 -78.46709 15606 ft 373 kts 247°
2026-04-28 15:04 -0.40045 -78.49158 15850 ft 386 kts 247°
2026-04-28 15:05 -0.41059 -78.51665 16304 ft 391 kts 247°
2026-04-28 15:05 -0.42080 -78.54188 16878 ft 393 kts 247°
2026-04-28 15:05 -0.43108 -78.56729 17434 ft 396 kts 247°
2026-04-28 15:05 -0.44144 -78.59292 17952 ft 400 kts 247°
2026-04-28 15:06 -0.45062 -78.61927 18480 ft 403 kts 253°
2026-04-28 15:06 -0.45801 -78.64628 19054 ft 402 kts 255°
2026-04-28 15:06 -0.46473 -78.67325 19690 ft 399 kts 256°
2026-04-28 15:06 -0.47135 -78.70005 20294 ft 397 kts 256°
2026-04-28 15:07 -0.47580 -78.71776 20656 ft 397 kts 255°
2026-04-28 15:07 -0.48267 -78.74459 20918 ft 398 kts 255°
2026-04-28 15:07 -0.49194 -78.77993 21163 ft 397 kts 255°
2026-04-28 15:07 -0.49905 -78.80668 21287 ft 402 kts 255°
2026-04-28 15:08 -0.50638 -78.83411 21285 ft 414 kts 255°
2026-04-28 15:08 -0.51391 -78.86222 21294 ft 424 kts 255°
2026-04-28 15:08 -0.51911 -78.88164 21283 ft 431 kts 255°
2026-04-28 15:08 -0.52694 -78.91086 21267 ft 439 kts 255°
2026-04-28 15:09 -0.53473 -78.93998 21256 ft 438 kts 255°
2026-04-28 15:09 -0.54256 -78.96927 21239 ft 435 kts 255°
2026-04-28 15:09 -0.55033 -78.99835 21222 ft 433 kts 255°
2026-04-28 15:09 -0.55812 -79.02748 21391 ft 436 kts 255°
2026-04-28 15:10 -0.56598 -79.05686 21718 ft 439 kts 255°
2026-04-28 15:10 -0.57389 -79.08623 22176 ft 437 kts 253°
2026-04-28 15:10 -0.58657 -79.11371 22171 ft 437 kts 233°
2026-04-28 15:10 -0.60689 -79.13595 22173 ft 430 kts 217°